| time (UTC) | temp F | wind direction | speed MPH | gust MPH | rain 1hr in | rain 24hr in | rain mn in | humidity % | barometer mb |
| 20260506222012 | 58 | 344 | 0.0 | 0.0 | 0.00 | 0.00 | 0.00 | 75 | 1017.0 |
| 20260506221512 | 58 | 344 | 0.0 | 0.0 | 0.00 | 0.00 | 0.00 | 73 | 1017.0 |
| 20260506221013 | 60 | 344 | 0.0 | 0.0 | 0.00 | 0.00 | 0.00 | 67 | 1017.0 |
| 20260506220512 | 59 | 343 | 0.0 | 0.0 | 0.00 | 0.00 | 0.00 | 66 | 1018.0 |
| 20260506220012 | 59 | 343 | 0.0 | 0.0 | 0.00 | 0.00 | 0.00 | 68 | 1018.0 |
| 20260506215512 | 59 | 343 | 0.0 | 0.0 | 0.00 | 0.00 | 0.00 | 69 | 1018.0 |
| 20260506215012 | 59 | 343 | 0.0 | 0.0 | 0.00 | 0.00 | 0.00 | 70 | 1018.0 |
| 20260506214512 | 59 | 343 | 0.0 | 0.0 | 0.00 | 0.00 | 0.00 | 72 | 1018.0 |
| 20260506214012 | 59 | 343 | 0.0 | 0.0 | 0.00 | 0.00 | 0.00 | 72 | 1018.0 |
| 20260506213513 | 59 | 343 | 0.0 | 0.0 | 0.00 | 0.00 | 0.00 | 73 | 1018.0 |
| 20260506213014 | 60 | 343 | 0.0 | 0.0 | 0.00 | 0.00 | 0.00 | 72 | 1018.0 |
| 20260506212518 | 60 | 343 | 0.0 | 0.0 | 0.00 | 0.00 | 0.00 | 71 | 1018.0 |
| 20260506212012 | 60 | 343 | 0.0 | 0.0 | 0.00 | 0.00 | 0.00 | 71 | 1018.0 |
| 20260506211512 | 60 | 343 | 0.0 | 0.0 | 0.00 | 0.00 | 0.00 | 69 | 1017.0 |
| 20260506211012 | 59 | 342 | 0.0 | 0.0 | 0.00 | 0.00 | 0.00 | 72 | 1018.0 |
| 20260506210513 | 60 | 342 | 0.0 | 0.0 | 0.00 | 0.00 | 0.00 | 72 | 1018.0 |
| 20260506210016 | 60 | 342 | 0.0 | 0.0 | 0.00 | 0.00 | 0.00 | 72 | 1018.0 |
| 20260506205513 | 60 | 342 | 0.0 | 0.0 | 0.00 | 0.00 | 0.00 | 71 | 1017.0 |
| 20260506205012 | 60 | 342 | 0.0 | 0.0 | 0.00 | 0.00 | 0.00 | 71 | 1017.0 |
| 20260506204515 | 61 | 342 | 0.0 | 0.0 | 0.00 | 0.00 | 0.00 | 70 | 1018.0 |
| 20260506203535 | 60 | 342 | 0.0 | 0.0 | 0.00 | 0.00 | 0.00 | 66 | 1018.0 |
| 20260506203012 | 60 | 335 | 0.0 | 0.0 | 0.00 | 0.00 | 0.00 | 69 | 1018.0 |
| 20260506202512 | 60 | 335 | 0.0 | 0.0 | 0.00 | 0.00 | 0.00 | 69 | 1018.0 |
| 20260506202012 | 61 | 335 | 0.0 | 0.0 | 0.00 | 0.00 | 0.00 | 69 | 1018.0 |
| 20260506201512 | 61 | 72 | 0.0 | 0.0 | 0.00 | 0.00 | 0.00 | 71 | 1018.0 |
| 20260506201012 | 60 | 72 | 0.0 | 0.0 | 0.00 | 0.00 | 0.00 | 72 | 1018.0 |
| 20260506200512 | 60 | 131 | 0.0 | 0.0 | 0.00 | 0.00 | 0.00 | 72 | 1018.0 |
| 20260506200013 | 60 | 351 | 0.0 | 0.0 | 0.00 | 0.00 | 0.00 | 72 | 1018.0 |
| 20260506195513 | 61 | 351 | 0.0 | 0.0 | 0.00 | 0.00 | 0.00 | 72 | 1018.0 |
| 20260506195013 | 61 | 351 | 0.0 | 0.0 | 0.00 | 0.00 | 0.00 | 71 | 1017.0 |
| 20260506194513 | 61 | 351 | 0.0 | 0.0 | 0.00 | 0.00 | 0.00 | 70 | 1017.0 |
| 20260506194012 | 62 | 351 | 0.0 | 0.0 | 0.00 | 0.00 | 0.00 | 68 | 1017.0 |
| 20260506193512 | 62 | 351 | 0.0 | 0.0 | 0.00 | 0.00 | 0.00 | 69 | 1017.0 |
| 20260506193012 | 62 | 351 | 0.0 | 0.0 | 0.00 | 0.00 | 0.00 | 68 | 1017.0 |
| 20260506192512 | 62 | 351 | 0.0 | 0.0 | 0.00 | 0.00 | 0.00 | 69 | 1017.0 |
| 20260506192012 | 63 | 351 | 0.0 | 0.0 | 0.00 | 0.00 | 0.00 | 68 | 1017.0 |
| 20260506191516 | 63 | 351 | 0.0 | 0.0 | 0.00 | 0.00 | 0.00 | 67 | 1017.0 |
| 20260506191012 | 64 | 351 | 0.0 | 0.0 | 0.00 | 0.00 | 0.00 | 66 | 1017.0 |
| 20260506190512 | 64 | 351 | 0.0 | 0.0 | 0.00 | 0.00 | 0.00 | 66 | 1017.0 |
| 20260506190012 | 64 | 351 | 0.0 | 0.0 | 0.00 | 0.00 | 0.00 | 65 | 1017.0 |
| 20260506185512 | 64 | 351 | 0.0 | 0.0 | 0.00 | 0.00 | 0.00 | 65 | 1017.0 |
| 20260506185013 | 64 | 351 | 0.0 | 0.0 | 0.00 | 0.00 | 0.00 | 65 | 1017.0 |
| 20260506184512 | 64 | 351 | 0.0 | 0.0 | 0.00 | 0.00 | 0.00 | 64 | 1017.0 |
| 20260506184012 | 64 | 351 | 0.0 | 0.0 | 0.00 | 0.00 | 0.00 | 64 | 1017.0 |
| 20260506183513 | 64 | 351 | 0.0 | 0.0 | 0.00 | 0.00 | 0.00 | 64 | 1017.0 |
| 20260506183012 | 65 | 351 | 0.0 | 0.0 | 0.00 | 0.00 | 0.00 | 64 | 1017.0 |
| 20260506182512 | 65 | 351 | 0.0 | 0.0 | 0.00 | 0.00 | 0.00 | 63 | 1017.0 |
| 20260506182012 | 64 | 193 | 0.0 | 0.0 | 0.00 | 0.00 | 0.00 | 63 | 1017.0 |
| 20260506181516 | 64 | 192 | 0.0 | 0.0 | 0.00 | 0.00 | 0.00 | 64 | 1017.0 |
| 20260506181012 | 64 | 192 | 0.0 | 0.0 | 0.00 | 0.00 | 0.00 | 64 | 1016.0 |
| 20260506180513 | 65 | 198 | 2.0 | 2.0 | 0.00 | 0.00 | 0.00 | 63 | 1016.0 |
| 20260506180012 | 66 | 324 | 0.0 | 0.0 | 0.00 | 0.00 | 0.00 | 61 | 1016.0 |
| 20260506175512 | 66 | 324 | 0.0 | 0.0 | 0.00 | 0.00 | 0.00 | 60 | 1016.0 |
| 20260506175014 | 67 | 324 | 0.0 | 0.0 | 0.00 | 0.00 | 0.00 | 59 | 1016.0 |
| 20260506174512 | 67 | 324 | 0.0 | 0.0 | 0.00 | 0.00 | 0.00 | 57 | 1016.0 |
| 20260506174013 | 67 | 324 | 0.0 | 0.0 | 0.00 | 0.00 | 0.00 | 54 | 1016.0 |
| 20260506173513 | 67 | 324 | 0.0 | 0.0 | 0.00 | 0.00 | 0.00 | 53 | 1016.0 |
| 20260506173013 | 67 | 324 | 0.0 | 0.0 | 0.00 | 0.00 | 0.00 | 54 | 1016.0 |
| 20260506172512 | 68 | 324 | 0.0 | 0.0 | 0.00 | 0.00 | 0.00 | 54 | 1016.0 |
| 20260506172014 | 68 | 324 | 0.0 | 0.0 | 0.00 | 0.00 | 0.00 | 58 | 1016.0 |
| 20260506171513 | 68 | 156 | 0.0 | 0.0 | 0.00 | 0.00 | 0.00 | 50 | 1016.0 |
| 20260506171013 | 68 | 156 | 1.0 | 1.0 | 0.00 | 0.00 | 0.00 | 52 | 1016.0 |
| 20260506170512 | 68 | 189 | 0.0 | 0.0 | 0.00 | 0.00 | 0.00 | 53 | 1016.0 |
| 20260506170012 | 69 | 210 | 0.0 | 0.0 | 0.00 | 0.00 | 0.00 | 54 | 1016.0 |
| 20260506165512 | 69 | 173 | 0.0 | 0.0 | 0.00 | 0.00 | 0.00 | 55 | 1016.0 |
| 20260506165013 | 70 | 251 | 1.0 | 1.0 | 0.00 | 0.00 | 0.00 | 57 | 1016.0 |
| 20260506164514 | 70 | 272 | 0.0 | 0.0 | 0.00 | 0.00 | 0.00 | 56 | 1016.0 |
| 20260506164012 | 71 | 317 | 2.0 | 2.0 | 0.00 | 0.00 | 0.00 | 54 | 1016.0 |
| 20260506163512 | 72 | 300 | 3.0 | 3.0 | 0.00 | 0.00 | 0.00 | 52 | 1016.0 |
| 20260506163013 | 73 | 278 | 2.0 | 2.0 | 0.00 | 0.00 | 0.00 | 47 | 1016.0 |
| 20260506162513 | 74 | 280 | 0.0 | 0.0 | 0.00 | 0.00 | 0.00 | 42 | 1016.0 |
| 20260506162013 | 74 | 280 | 0.0 | 0.0 | 0.00 | 0.00 | 0.00 | 40 | 1016.0 |
| 20260506161514 | 75 | 240 | 0.0 | 0.0 | 0.00 | 0.00 | 0.00 | 39 | 1016.0 |
| 20260506161013 | 74 | 243 | 0.0 | 0.0 | 0.00 | 0.00 | 0.00 | 39 | 1016.0 |
| 20260506160512 | 74 | 184 | 0.0 | 0.0 | 0.00 | 0.00 | 0.00 | 43 | 1016.0 |
| 20260506160012 | 74 | 190 | 4.0 | 4.0 | 0.00 | 0.00 | 0.00 | 42 | 1016.0 |
| 20260506155512 | 74 | 171 | 3.0 | 3.0 | 0.00 | 0.00 | 0.00 | 42 | 1016.0 |
| 20260506155012 | 74 | 195 | 5.0 | 6.0 | 0.00 | 0.00 | 0.00 | 41 | 1016.0 |
| 20260506154513 | 75 | 221 | 0.0 | 0.0 | 0.00 | 0.00 | 0.00 | 39 | 1016.0 |
| 20260506154013 | 75 | 236 | 0.0 | 0.0 | 0.00 | 0.00 | 0.00 | 37 | 1016.0 |
| 20260506153512 | 75 | 171 | 0.0 | 0.0 | 0.00 | 0.00 | 0.00 | 38 | 1016.0 |
| 20260506153012 | 75 | 174 | 3.0 | 3.0 | 0.00 | 0.00 | 0.00 | 37 | 1016.0 |
| 20260506152513 | 75 | 191 | 2.0 | 2.0 | 0.00 | 0.00 | 0.00 | 37 | 1016.0 |
| 20260506152015 | 74 | 173 | 3.0 | 3.0 | 0.00 | 0.00 | 0.00 | 37 | 1016.0 |
| 20260506151512 | 75 | 210 | 3.0 | 3.0 | 0.00 | 0.00 | 0.00 | 37 | 1016.0 |
| 20260506151012 | 75 | 186 | 3.0 | 3.0 | 0.00 | 0.00 | 0.00 | 39 | 1016.0 |
| 20260506150513 | 76 | 205 | 4.0 | 4.0 | 0.00 | 0.00 | 0.00 | 39 | 1016.0 |
| 20260506150014 | 76 | 180 | 2.0 | 2.0 | 0.00 | 0.00 | 0.00 | 36 | 1016.0 |
| 20260506145512 | 76 | 168 | 2.0 | 2.0 | 0.00 | 0.00 | 0.00 | 36 | 1016.0 |
| 20260506145013 | 76 | 186 | 0.0 | 0.0 | 0.00 | 0.00 | 0.00 | 36 | 1016.0 |
| 20260506144512 | 76 | 177 | 3.0 | 3.0 | 0.00 | 0.00 | 0.00 | 36 | 1016.0 |
| 20260506144012 | 76 | 184 | 0.0 | 0.0 | 0.00 | 0.00 | 0.00 | 36 | 1016.0 |
| 20260506143512 | 76 | 213 | 0.0 | 0.0 | 0.00 | 0.00 | 0.00 | 36 | 1016.0 |
| 20260506143012 | 76 | 173 | 0.0 | 0.0 | 0.00 | 0.00 | 0.00 | 37 | 1016.0 |
| 20260506142512 | 77 | 191 | 2.0 | 2.0 | 0.00 | 0.00 | 0.00 | 36 | 1016.0 |
| 20260506142013 | 78 | 180 | 5.0 | 5.0 | 0.00 | 0.00 | 0.00 | 34 | 1016.0 |
| 20260506141512 | 77 | 156 | 2.0 | 2.0 | 0.00 | 0.00 | 0.00 | 34 | 1016.0 |
| 20260506141012 | 77 | 192 | 4.0 | 4.0 | 0.00 | 0.00 | 0.00 | 34 | 1016.0 |
| 20260506140513 | 77 | 150 | 0.0 | 0.0 | 0.00 | 0.00 | 0.00 | 33 | 1016.0 |
| 20260506140012 | 77 | 191 | 4.0 | 4.0 | 0.00 | 0.00 | 0.00 | 34 | 1016.0 |
| 20260506135512 | 76 | 190 | 2.0 | 2.0 | 0.00 | 0.00 | 0.00 | 33 | 1016.0 |
| 20260506135012 | 75 | 156 | 4.0 | 4.0 | 0.00 | 0.00 | 0.00 | 35 | 1016.0 |
| 20260506134512 | 75 | 184 | 5.0 | 5.0 | 0.00 | 0.00 | 0.00 | 35 | 1016.0 |
| 20260506134012 | 75 | 202 | 4.0 | 4.0 | 0.00 | 0.00 | 0.00 | 35 | 1016.0 |
| 20260506133513 | 76 | 212 | 4.0 | 5.0 | 0.00 | 0.00 | 0.00 | 33 | 1016.0 |
| 20260506133014 | 76 | 158 | 4.0 | 5.0 | 0.00 | 0.00 | 0.00 | 33 | 1016.0 |
| 20260506132512 | 76 | 150 | 5.0 | 6.0 | 0.00 | 0.00 | 0.00 | 32 | 1016.0 |
| 20260506132012 | 77 | 204 | 3.0 | 3.0 | 0.00 | 0.00 | 0.00 | 31 | 1016.0 |
| 20260506131516 | 77 | 158 | 3.0 | 3.0 | 0.00 | 0.00 | 0.00 | 31 | 1016.0 |
| 20260506131016 | 77 | 191 | 11.0 | 11.0 | 0.00 | 0.00 | 0.00 | 32 | 1016.0 |
| 20260506130513 | 77 | 183 | 4.0 | 5.0 | 0.00 | 0.00 | 0.00 | 32 | 1016.0 |
| 20260506130013 | 78 | 195 | 4.0 | 5.0 | 0.00 | 0.00 | 0.00 | 32 | 1016.0 |
| 20260506125512 | 78 | 180 | 6.0 | 7.0 | 0.00 | 0.00 | 0.00 | 32 | 1016.0 |
| 20260506125013 | 78 | 132 | 5.0 | 6.0 | 0.00 | 0.00 | 0.00 | 32 | 1016.0 |
| 20260506124512 | 78 | 156 | 4.0 | 5.0 | 0.00 | 0.00 | 0.00 | 32 | 1016.0 |
| 20260506124012 | 78 | 178 | 5.0 | 5.0 | 0.00 | 0.00 | 0.00 | 33 | 1016.0 |
| 20260506123513 | 77 | 153 | 5.0 | 5.0 | 0.00 | 0.00 | 0.00 | 33 | 1016.0 |
| 20260506123012 | 78 | 197 | 4.0 | 4.0 | 0.00 | 0.00 | 0.00 | 33 | 1016.0 |
| 20260506122513 | 78 | 178 | 7.0 | 7.0 | 0.00 | 0.00 | 0.00 | 33 | 1016.0 |
| 20260506122012 | 78 | 210 | 2.0 | 2.0 | 0.00 | 0.00 | 0.00 | 34 | 1016.0 |
| 20260506121512 | 78 | 150 | 6.0 | 7.0 | 0.00 | 0.00 | 0.00 | 35 | 1016.0 |
| 20260506121012 | 77 | 190 | 1.0 | 1.0 | 0.00 | 0.00 | 0.00 | 36 | 1016.0 |
| 20260506120512 | 77 | 192 | 2.0 | 2.0 | 0.00 | 0.00 | 0.00 | 37 | 1016.0 |
| 20260506120013 | 77 | 174 | 2.0 | 2.0 | 0.00 | 0.00 | 0.00 | 38 | 1016.0 |
| 20260506115513 | 76 | 186 | 5.0 | 5.0 | 0.00 | 0.00 | 0.00 | 39 | 1016.0 |
| 20260506115013 | 77 | 197 | 7.0 | 7.0 | 0.00 | 0.00 | 0.00 | 39 | 1016.0 |
| 20260506114513 | 77 | 230 | 3.0 | 3.0 | 0.00 | 0.00 | 0.00 | 39 | 1017.0 |
| 20260506114013 | 76 | 180 | 2.0 | 2.0 | 0.00 | 0.00 | 0.00 | 40 | 1017.0 |
| 20260506113512 | 78 | 223 | 2.0 | 2.0 | 0.00 | 0.00 | 0.00 | 40 | 1016.0 |
| 20260506113013 | 77 | 198 | 1.0 | 1.0 | 0.00 | 0.00 | 0.00 | 39 | 1016.0 |
| 20260506112512 | 77 | 202 | 2.0 | 2.0 | 0.00 | 0.00 | 0.00 | 41 | 1017.0 |
| 20260506112012 | 77 | 210 | 3.0 | 3.0 | 0.00 | 0.00 | 0.00 | 41 | 1017.0 |
| 20260506111514 | 76 | 180 | 3.0 | 3.0 | 0.00 | 0.00 | 0.00 | 42 | 1017.0 |
| 20260506111012 | 75 | 203 | 5.0 | 5.0 | 0.00 | 0.00 | 0.00 | 44 | 1017.0 |
| 20260506110513 | 75 | 144 | 2.0 | 2.0 | 0.00 | 0.00 | 0.00 | 44 | 1017.0 |
| 20260506110012 | 75 | 212 | 6.0 | 6.0 | 0.00 | 0.00 | 0.00 | 45 | 1017.0 |
| 20260506105513 | 74 | 180 | 0.0 | 0.0 | 0.00 | 0.00 | 0.00 | 45 | 1017.0 |
| 20260506105012 | 74 | 191 | 0.0 | 0.0 | 0.00 | 0.00 | 0.00 | 47 | 1017.0 |
| 20260506104513 | 75 | 185 | 1.0 | 1.0 | 0.00 | 0.00 | 0.00 | 47 | 1017.0 |
| 20260506104014 | 75 | 336 | 0.0 | 0.0 | 0.00 | 0.00 | 0.00 | 47 | 1017.0 |
| 20260506103513 | 75 | 237 | 0.0 | 0.0 | 0.00 | 0.00 | 0.00 | 47 | 1017.0 |
| 20260506103012 | 74 | 292 | 1.0 | 1.0 | 0.00 | 0.00 | 0.00 | 47 | 1017.0 |
| 20260506102513 | 74 | 228 | 3.0 | 3.0 | 0.00 | 0.00 | 0.00 | 47 | 1017.0 |
| 20260506102012 | 73 | 77 | 0.0 | 0.0 | 0.00 | 0.00 | 0.00 | 50 | 1017.0 |
| 20260506101513 | 73 | 138 | 0.0 | 0.0 | 0.00 | 0.00 | 0.00 | 50 | 1017.0 |
| 20260506101012 | 71 | 275 | 4.0 | 4.0 | 0.00 | 0.00 | 0.00 | 51 | 1017.0 |
| 20260506100512 | 72 | 205 | 4.0 | 5.0 | 0.00 | 0.00 | 0.00 | 51 | 1017.0 |
| 20260506100013 | 71 | 174 | 2.0 | 2.0 | 0.00 | 0.00 | 0.00 | 52 | 1017.0 |
| 20260506095513 | 71 | 174 | 2.0 | 2.0 | 0.00 | 0.00 | 0.00 | 52 | 1017.0 |
| 20260506095013 | 73 | 217 | 3.0 | 3.0 | 0.00 | 0.00 | 0.00 | 50 | 1017.0 |
| 20260506094513 | 71 | 171 | 3.0 | 3.0 | 0.00 | 0.00 | 0.00 | 51 | 1017.0 |
| 20260506094012 | 71 | 191 | 7.0 | 7.0 | 0.00 | 0.00 | 0.00 | 53 | 1017.0 |
| 20260506093512 | 71 | 165 | 3.0 | 3.0 | 0.00 | 0.00 | 0.00 | 52 | 1017.0 |
| 20260506093012 | 71 | 210 | 3.0 | 4.0 | 0.00 | 0.00 | 0.00 | 54 | 1017.0 |
| 20260506092513 | 72 | 156 | 3.0 | 3.0 | 0.00 | 0.00 | 0.00 | 53 | 1017.0 |
| 20260506092012 | 72 | 174 | 6.0 | 6.0 | 0.00 | 0.00 | 0.00 | 54 | 1017.0 |
| 20260506091512 | 71 | 186 | 0.0 | 0.0 | 0.00 | 0.00 | 0.00 | 56 | 1017.0 |
| 20260506091012 | 72 | 259 | 2.0 | 2.0 | 0.00 | 0.00 | 0.00 | 55 | 1017.0 |
| 20260506090513 | 71 | 174 | 0.0 | 0.0 | 0.00 | 0.00 | 0.00 | 55 | 1017.0 |
| 20260506090012 | 70 | 228 | 0.0 | 0.0 | 0.00 | 0.00 | 0.00 | 56 | 1017.0 |
| 20260506085512 | 69 | 156 | 3.0 | 3.0 | 0.00 | 0.00 | 0.00 | 58 | 1017.0 |
| 20260506085012 | 69 | 202 | 0.0 | 0.0 | 0.00 | 0.00 | 0.00 | 60 | 1017.0 |
| 20260506084512 | 69 | 165 | 2.0 | 2.0 | 0.00 | 0.00 | 0.00 | 60 | 1017.0 |
| 20260506084012 | 70 | 180 | 4.0 | 4.0 | 0.00 | 0.00 | 0.00 | 59 | 1017.0 |
| 20260506083513 | 70 | 241 | 0.0 | 0.0 | 0.00 | 0.00 | 0.00 | 58 | 1017.0 |
| 20260506083013 | 69 | 179 | 5.0 | 6.0 | 0.00 | 0.00 | 0.00 | 60 | 1017.0 |
| 20260506082512 | 69 | 162 | 0.0 | 0.0 | 0.00 | 0.00 | 0.00 | 60 | 1017.0 |
| 20260506082013 | 70 | 280 | 2.0 | 2.0 | 0.00 | 0.00 | 0.00 | 58 | 1017.0 |
| 20260506081512 | 69 | 144 | 7.0 | 7.0 | 0.00 | 0.00 | 0.00 | 61 | 1017.0 |
| 20260506081012 | 69 | 179 | 1.0 | 1.0 | 0.00 | 0.00 | 0.00 | 61 | 1017.0 |
| 20260506080512 | 70 | 258 | 3.0 | 3.0 | 0.00 | 0.00 | 0.00 | 60 | 1017.0 |
| 20260506073512 | 67 | 160 | 0.0 | 0.0 | 0.00 | 0.00 | 0.00 | 65 | 1017.0 |
| 20260506073013 | 68 | 186 | 4.0 | 4.0 | 0.00 | 0.00 | 0.00 | 64 | 1017.0 |
| 20260506072512 | 69 | 280 | 4.0 | 4.0 | 0.00 | 0.00 | 0.00 | 61 | 1017.0 |
| 20260506072012 | 68 | 18 | 0.0 | 0.0 | 0.00 | 0.00 | 0.00 | 61 | 1017.0 |
| 20260506071512 | 67 | 344 | 1.0 | 1.0 | 0.00 | 0.00 | 0.00 | 63 | 1017.0 |
| 20260506071013 | 67 | 177 | 0.0 | 0.0 | 0.00 | 0.00 | 0.00 | 66 | 1017.0 |
| 20260506070512 | 66 | 202 | 3.0 | 3.0 | 0.00 | 0.00 | 0.00 | 64 | 1017.0 |
| 20260506062512 | 65 | 168 | 3.0 | 3.0 | 0.00 | 0.00 | 0.00 | 71 | 1017.0 |
| 20260506062012 | 65 | 191 | 0.0 | 0.0 | 0.00 | 0.00 | 0.00 | 69 | 1017.0 |
| 20260506061512 | 65 | 193 | 3.0 | 3.0 | 0.00 | 0.00 | 0.00 | 69 | 1017.0 |
| 20260506061012 | 65 | 174 | 0.0 | 0.0 | 0.00 | 0.00 | 0.00 | 72 | 1017.0 |
| 20260506060513 | 65 | 276 | 2.0 | 2.0 | 0.00 | 0.00 | 0.00 | 71 | 1017.0 |
| 20260506051013 | 60 | 270 | 1.0 | 1.0 | 0.00 | 0.00 | 0.00 | 72 | 1017.0 |
| 20260506050512 | 60 | 270 | 0.0 | 0.0 | 0.00 | 0.00 | 0.00 | 73 | 1017.0 |
| 20260506045013 | 59 | 96 | 0.0 | 0.0 | 0.00 | 0.00 | 0.00 | 75 | 1017.0 |
| 20260506044512 | 59 | 96 | 0.0 | 0.0 | 0.00 | 0.00 | 0.00 | 74 | 1017.0 |
| 20260506044013 | 59 | 96 | 0.0 | 0.0 | 0.00 | 0.00 | 0.00 | 72 | 1017.0 |
| 20260506043512 | 58 | 96 | 0.0 | 0.0 | 0.00 | 0.00 | 0.00 | 71 | 1017.0 |
| 20260506043013 | 58 | 102 | 0.0 | 0.0 | 0.00 | 0.00 | 0.00 | 75 | 1017.0 |
| 20260506042513 | 59 | 102 | 0.0 | 0.0 | 0.00 | 0.00 | 0.00 | 74 | 1017.0 |
| 20260506042012 | 58 | 102 | 0.0 | 0.0 | 0.00 | 0.00 | 0.00 | 72 | 1017.0 |
| 20260506041512 | 58 | 102 | 0.0 | 0.0 | 0.00 | 0.00 | 0.00 | 73 | 1017.0 |
| 20260506041012 | 58 | 19 | 0.0 | 0.0 | 0.00 | 0.00 | 0.00 | 68 | 1017.0 |
| 20260506040513 | 58 | 12 | 0.0 | 0.0 | 0.00 | 0.00 | 0.00 | 67 | 1017.0 |
| 20260506040012 | 57 | 12 | 1.0 | 1.0 | 0.00 | 0.00 | 0.00 | 69 | 1017.0 |
| 20260506035513 | 56 | 3 | 2.0 | 2.0 | 0.00 | 0.00 | 0.00 | 72 | 1017.0 |
| 20260506035012 | 56 | 357 | 0.0 | 0.0 | 0.00 | 0.00 | 0.00 | 74 | 1017.0 |
| 20260506034512 | 56 | 357 | 0.0 | 0.0 | 0.00 | 0.00 | 0.00 | 74 | 1017.0 |
| 20260506034012 | 56 | 357 | 0.0 | 0.0 | 0.00 | 0.00 | 0.00 | 74 | 1017.0 |
| 20260506033512 | 56 | 357 | 0.0 | 0.0 | 0.00 | 0.00 | 0.00 | 76 | 1017.0 |
| 20260506033012 | 57 | 357 | 0.0 | 0.0 | 0.00 | 0.00 | 0.00 | 73 | 1016.0 |
| 20260506032513 | 57 | 357 | 0.0 | 0.0 | 0.00 | 0.00 | 0.00 | 72 | 1016.0 |
| 20260506032012 | 57 | 357 | 0.0 | 0.0 | 0.00 | 0.00 | 0.00 | 71 | 1016.0 |
| 20260506031512 | 58 | 357 | 0.0 | 0.0 | 0.00 | 0.00 | 0.00 | 70 | 1016.0 |
| 20260506031013 | 58 | 357 | 0.0 | 0.0 | 0.00 | 0.00 | 0.00 | 67 | 1016.0 |
| 20260506030512 | 59 | 357 | 0.0 | 0.0 | 0.00 | 0.00 | 0.00 | 66 | 1016.0 |
| 20260506030013 | 59 | 2 | 0.0 | 0.0 | 0.00 | 0.00 | 0.00 | 65 | 1016.0 |
| 20260506025512 | 60 | 2 | 0.0 | 0.0 | 0.00 | 0.00 | 0.00 | 64 | 1016.0 |
| 20260506025013 | 60 | 342 | 2.0 | 2.0 | 0.00 | 0.00 | 0.00 | 64 | 1016.0 |
| 20260506024512 | 59 | 18 | 0.0 | 0.0 | 0.00 | 0.00 | 0.00 | 65 | 1016.0 |
| 20260506024012 | 59 | 12 | 0.0 | 0.0 | 0.00 | 0.00 | 0.00 | 65 | 1016.0 |
| 20260506023512 | 59 | 18 | 0.0 | 0.0 | 0.00 | 0.00 | 0.00 | 69 | 1016.0 |
| 20260506023012 | 58 | 72 | 0.0 | 0.0 | 0.00 | 0.00 | 0.00 | 75 | 1016.0 |
| 20260506022512 | 59 | 72 | 0.0 | 0.0 | 0.00 | 0.00 | 0.00 | 74 | 1016.0 |
| 20260506022012 | 59 | 72 | 0.0 | 0.0 | 0.00 | 0.00 | 0.00 | 74 | 1016.0 |
| 20260506021513 | 59 | 72 | 0.0 | 0.0 | 0.00 | 0.00 | 0.00 | 73 | 1016.0 |
| 20260506021012 | 59 | 72 | 0.0 | 0.0 | 0.00 | 0.00 | 0.00 | 73 | 1016.0 |
| 20260506020512 | 59 | 72 | 0.0 | 0.0 | 0.00 | 0.00 | 0.00 | 74 | 1016.0 |
| 20260506020013 | 59 | 123 | 0.0 | 0.0 | 0.00 | 0.00 | 0.00 | 73 | 1016.0 |
| 20260506015512 | 59 | 123 | 0.0 | 0.0 | 0.00 | 0.00 | 0.00 | 72 | 1016.0 |
| 20260506015012 | 61 | 123 | 0.0 | 0.0 | 0.00 | 0.00 | 0.00 | 66 | 1016.0 |
| 20260506014512 | 61 | 80 | 1.0 | 1.0 | 0.00 | 0.00 | 0.00 | 68 | 1016.0 |
| 20260506014012 | 61 | 114 | 2.0 | 2.0 | 0.00 | 0.00 | 0.00 | 69 | 1016.0 |
| 20260506013512 | 61 | 118 | 1.0 | 1.0 | 0.00 | 0.00 | 0.00 | 69 | 1016.0 |
| 20260506013013 | 61 | 84 | 0.0 | 0.0 | 0.00 | 0.00 | 0.00 | 66 | 1016.0 |
| 20260506012512 | 61 | 42 | 1.0 | 1.0 | 0.00 | 0.00 | 0.00 | 62 | 1016.0 |
| 20260506012014 | 61 | 52 | 4.0 | 4.0 | 0.00 | 0.00 | 0.00 | 62 | 1016.0 |
| 20260506011512 | 59 | 90 | 0.0 | 0.0 | 0.00 | 0.00 | 0.00 | 63 | 1016.0 |
| 20260506011012 | 58 | 84 | 0.0 | 0.0 | 0.00 | 0.00 | 0.00 | 66 | 1016.0 |
| 20260506010512 | 58 | 331 | 0.0 | 0.0 | 0.00 | 0.00 | 0.00 | 73 | 1016.0 |
| 20260506010012 | 57 | 331 | 0.0 | 0.0 | 0.00 | 0.00 | 0.00 | 73 | 1016.0 |
| 20260506005512 | 57 | 331 | 0.0 | 0.0 | 0.00 | 0.00 | 0.00 | 72 | 1016.0 |
| 20260506005012 | 57 | 331 | 0.0 | 0.0 | 0.00 | 0.00 | 0.00 | 74 | 1016.0 |
| 20260506004513 | 57 | 331 | 0.0 | 0.0 | 0.00 | 0.00 | 0.00 | 74 | 1016.0 |
| 20260506004012 | 57 | 331 | 0.0 | 0.0 | 0.00 | 0.00 | 0.00 | 74 | 1016.0 |
| 20260506003512 | 58 | 331 | 0.0 | 0.0 | 0.00 | 0.00 | 0.00 | 74 | 1016.0 |
| 20260506003013 | 58 | 331 | 0.0 | 0.0 | 0.00 | 0.00 | 0.00 | 72 | 1016.0 |
| 20260506002513 | 57 | 331 | 0.0 | 0.0 | 0.00 | 0.00 | 0.00 | 72 | 1016.0 |
| 20260506002012 | 57 | 204 | 0.0 | 0.0 | 0.00 | 0.00 | 0.00 | 74 | 1016.0 |
| 20260506001512 | 58 | 204 | 0.0 | 0.0 | 0.00 | 0.00 | 0.00 | 71 | 1016.0 |
| 20260506001012 | 58 | 336 | 0.0 | 0.0 | 0.00 | 0.00 | 0.00 | 69 | 1016.0 |
| 20260506000512 | 58 | 336 | 0.0 | 0.0 | 0.00 | 0.00 | 0.00 | 68 | 1016.0 |
| 20260506000012 | 58 | 60 | 0.0 | 0.0 | 0.00 | 0.00 | 0.00 | 72 | 1016.0 |
| 20260505235512 | 58 | 60 | 0.0 | 0.0 | 0.00 | 0.00 | 0.00 | 72 | 1016.0 |
| 20260505235012 | 58 | 58 | 0.0 | 0.0 | 0.00 | 0.00 | 0.00 | 72 | 1016.0 |
| 20260505234513 | 58 | 58 | 0.0 | 0.0 | 0.00 | 0.00 | 0.00 | 72 | 1016.0 |
| 20260505234012 | 59 | 58 | 0.0 | 0.0 | 0.00 | 0.00 | 0.00 | 71 | 1016.0 |
| 20260505233513 | 59 | 182 | 0.0 | 0.0 | 0.00 | 0.00 | 0.00 | 69 | 1016.0 |
| 20260505233012 | 59 | 154 | 0.0 | 0.0 | 0.00 | 0.00 | 0.00 | 71 | 1016.0 |
| 20260505232513 | 60 | 29 | 0.0 | 0.0 | 0.00 | 0.00 | 0.00 | 69 | 1016.0 |
| 20260505232012 | 60 | 117 | 0.0 | 0.0 | 0.00 | 0.00 | 0.00 | 69 | 1016.0 |
| 20260505231512 | 60 | 117 | 0.0 | 0.0 | 0.00 | 0.00 | 0.00 | 69 | 1017.0 |
| 20260505231012 | 60 | 149 | 0.0 | 0.0 | 0.00 | 0.00 | 0.00 | 68 | 1016.0 |
| 20260505230512 | 61 | 78 | 0.0 | 0.0 | 0.00 | 0.00 | 0.00 | 67 | 1016.0 |
| 20260505230012 | 61 | 48 | 0.0 | 0.0 | 0.00 | 0.00 | 0.00 | 68 | 1016.0 |
| 20260505225512 | 61 | 109 | 0.0 | 0.0 | 0.00 | 0.00 | 0.00 | 67 | 1016.0 |
| 20260505225012 | 62 | 72 | 3.0 | 3.0 | 0.00 | 0.00 | 0.00 | 66 | 1016.0 |
| 20260505224512 | 62 | 90 | 3.0 | 3.0 | 0.00 | 0.00 | 0.00 | 66 | 1016.0 |
| 20260505224012 | 62 | 84 | 2.0 | 2.0 | 0.00 | 0.00 | 0.00 | 66 | 1016.0 |
| 20260505223512 | 61 | 90 | 2.0 | 2.0 | 0.00 | 0.00 | 0.00 | 66 | 1016.0 |
| 20260505223012 | 61 | 60 | 0.0 | 0.0 | 0.00 | 0.00 | 0.00 | 65 | 1017.0 |
| 20260505222512 | 61 | 306 | 0.0 | 0.0 | 0.00 | 0.00 | 0.00 | 64 | 1016.0 |